Huron, SD

4:50 AM CDT on June 24, 2017 (GMT -0500)
Huron Regional

Weather History for KHON - May, 2013

Change the Weather History Date:

Friday, May 17, 2013

  Actual Average Record
Temperature  
Mean Temperature 70 °F 58 °F  
Max Temperature 85 °F 71 °F 104 °F (1934)
Min Temperature 54 °F 47 °F 28 °F (1968)
Degree Days  
Heating Degree Days 0 7  
Month to date heating degree days 193 166  
Since 1 July heating degree days 8074 7544  
Cooling Degree Days 5 1  
Month to date cooling degree days 20 14  
Year to date cooling degree days 20 18  
Growing Degree Days 19 (Base 50)    
Moisture  
Dew Point 59 °F    
Average Humidity 79    
Maximum Humidity 100    
Minimum Humidity 31    
Precipitation  
Precipitation 0.11 in 0.10 in 2.27 in (1892)
Month to date precipitation 0.98 1.60  
Year to date precipitation 6.08 6.47  
Snow  
Snow 0.00 in 0.00 in 0.00 in ()
Month to date snowfall 0.0 0.1  
Since 1 July snowfall 60.1 44.0  
Snow Depth 0.00 in    
Sea Level Pressure  
Sea Level Pressure 29.79 in    
Wind  
Wind Speed 5 mph (ESE)    
Max Wind Speed 29 mph    
Max Gust Speed 40 mph    
Visibility 7 miles    
Events Fog , Rain , Thunderstorm    
T = Trace of Precipitation, MM = Missing Value Source: NWS Daily Summary

Daily Weather History Graph

Daily Weather History Graph

Search for Another Location

Airport or City:

Trip Planner

Search our weather history database for the weather conditions in past years. The results will help you decide how hot, cold, wet, or windy it might be!

Date:

Astronomy

May. 17, 2013 Rise Set
Actual Time 6:03 AM CDT 8:56 PM CDT
Civil Twilight 5:29 AM CDT 9:30 PM CDT
Nautical Twilight 4:46 AM CDT 10:13 PM CDT
Astronomical Twilight 3:55 AM CDT 11:04 PM CDT
Moon 12:44 PM CDT (5/17) 1:43 AM CDT (5/17)
Length of Visible Light 16h 00m
Length of Day
14h 52m
Waxing Crescent, 45% of the Moon is Illuminated
May 17
Waxing Crescent
May 17
First Quarter
May 24
Full
May 31
Last Quarter
Jun 8
New

Hourly Weather History & Observations

Time (CDT) Temp. Heat Index Dew Point Humidity Pressure Visibility Wind Dir Wind Speed Gust Speed Precip Events Conditions
12:55 AM 57.9 °F - 55.0 °F 90% 29.80 in 10.0 mi East 3.5 mph - N/A   Clear
1:55 AM 55.9 °F - 54.0 °F 93% 29.81 in 10.0 mi East 3.5 mph - N/A   Clear
2:55 AM 55.0 °F - 55.0 °F 100% 29.81 in 10.0 mi Calm Calm - N/A   Partly Cloudy
3:55 AM 55.9 °F - 55.9 °F 100% 29.79 in 9.0 mi ENE 4.6 mph - N/A   Mostly Cloudy
4:55 AM 55.0 °F - 55.0 °F 100% 29.80 in 5.0 mi Calm Calm - N/A   Partly Cloudy
5:10 AM 55.4 °F - 55.4 °F 100% 29.80 in 5.0 mi East 3.5 mph - N/A   Mostly Cloudy
5:31 AM 55.4 °F - 55.4 °F 100% 29.80 in 4.0 mi Calm Calm - N/A   Overcast
5:55 AM 55.9 °F - 55.9 °F 100% 29.80 in 4.0 mi Calm Calm - N/A   Overcast
6:03 AM 55.4 °F - 55.4 °F 100% 29.80 in 2.5 mi NE 4.6 mph - N/A   Mostly Cloudy
6:22 AM 55.4 °F - 55.4 °F 100% 29.81 in 1.2 mi Calm Calm - N/A   Mostly Cloudy
6:29 AM 55.4 °F - 55.4 °F 100% 29.81 in 0.5 mi Calm Calm - N/A Fog Fog
6:37 AM 55.4 °F - 55.4 °F 100% 29.81 in 0.2 mi Calm Calm - N/A Fog Fog
6:44 AM 53.6 °F - 53.6 °F 100% 29.82 in 1.2 mi Calm Calm - N/A   Scattered Clouds
6:52 AM 55.4 °F - 55.4 °F 100% 29.82 in 2.5 mi NNE 3.5 mph - N/A   Scattered Clouds
6:55 AM 55.4 °F - 55.4 °F 100% 29.82 in 3.0 mi NNE 3.5 mph - N/A   Scattered Clouds
7:09 AM 57.2 °F - 57.2 °F 100% 29.82 in 2.5 mi ENE 4.6 mph - N/A   Partly Cloudy
7:24 AM 59.0 °F - 57.2 °F 94% 29.83 in 3.0 mi NE 4.6 mph - N/A   Clear
7:43 AM 59.0 °F - 57.2 °F 94% 29.83 in 4.0 mi East 5.8 mph - N/A   Scattered Clouds
7:55 AM 60.1 °F - 59.0 °F 96% 29.83 in 4.0 mi East 5.8 mph - N/A   Mostly Cloudy
8:55 AM 63.0 °F - 60.1 °F 90% 29.83 in 8.0 mi SE 5.8 mph - N/A   Overcast
9:55 AM 66.0 °F - 62.1 °F 87% 29.83 in 7.0 mi South 5.8 mph - N/A   Overcast
10:06 AM 66.2 °F - 62.6 °F 88% 29.83 in 7.0 mi South 5.8 mph - N/A   Overcast
10:52 AM 68.0 °F - 62.6 °F 83% 29.83 in 7.0 mi Calm Calm - N/A   Scattered Clouds
10:55 AM 69.1 °F - 62.1 °F 78% 29.82 in 7.0 mi Calm Calm - N/A   Scattered Clouds
11:02 AM 69.8 °F - 62.6 °F 78% 29.83 in 7.0 mi Variable 3.5 mph - N/A   Mostly Cloudy
11:55 AM 72.0 °F - 62.1 °F 71% 29.81 in 8.0 mi South 4.6 mph - N/A   Mostly Cloudy
12:34 PM 73.4 °F - 62.6 °F 69% 29.81 in 8.0 mi ESE 8.1 mph - N/A   Scattered Clouds
12:55 PM 75.9 °F - 64.0 °F 67% 29.79 in 9.0 mi ESE 8.1 mph - N/A   Clear
1:55 PM 80.6 °F 81.8 °F 62.6 °F 54% 29.79 in 10.0 mi SSE 9.2 mph - N/A   Clear
2:55 PM 81.0 °F 81.6 °F 60.1 °F 49% 29.76 in 10.0 mi SE 6.9 mph - N/A   Clear
3:55 PM 82.9 °F 82.8 °F 59.0 °F 44% 29.74 in 10.0 mi Variable 4.6 mph - N/A   Clear
4:55 PM 84.9 °F 84.2 °F 57.9 °F 40% 29.73 in 10.0 mi Calm Calm - N/A   Clear
5:55 PM 84.9 °F 84.4 °F 59.0 °F 41% 29.71 in 10.0 mi SSW 8.1 mph - N/A   Clear
6:55 PM 84.9 °F 84.4 °F 59.0 °F 41% 29.70 in 10.0 mi Variable 5.8 mph - N/A   Clear
7:55 PM 80.1 °F 81.1 °F 61.0 °F 52% 29.71 in 10.0 mi SE 4.6 mph - N/A   Clear
8:55 PM 75.9 °F - 61.0 °F 60% 29.72 in 10.0 mi ESE 4.6 mph - N/A   Clear
9:55 PM 75.0 °F - 61.0 °F 62% 29.73 in 5.0 mi ESE 5.8 mph - N/A   Haze
10:33 PM 75.2 °F - 60.8 °F 61% 29.73 in 10.0 mi SE 8.1 mph - N/A Thunderstorm Clear
10:55 PM 75.9 °F - 61.0 °F 60% 29.71 in 10.0 mi SSE 8.1 mph - N/A Thunderstorm Clear
11:27 PM 66.2 °F - 60.8 °F 83% 29.81 in 10.0 mi WSW 15.0 mph 38.0 mph 0.00 in Rain , Thunderstorm Light Thunderstorms and Rain
11:40 PM 64.4 °F - 60.8 °F 88% 29.82 in 7.0 mi WSW 12.7 mph 28.8 mph 0.02 in Rain Rain
11:55 PM 66.0 °F - 61.0 °F 84% 29.79 in 10.0 mi West 20.7 mph 32.2 mph 0.03 in Rain Light Rain